Theta_e
351 351 351 350 351 352 351 351 351 350 350 350 350 351 351 351 352 353 353 353 351 349 346 345 346 349 351 350 350 349 349 349 350 351 351 352 352 351 350 350 350 351 351 351 350 349 349 348 348 349 350 349 350 350 349 349 348 348 347 347 347 347 346 346 346 346 346 347 348 348 347 345 343 343 343 342 342 342 341 341 342 342 341 341 341
351 351 351 351 351 352 352 352 352 351 351 350 350 351 351 352 352 353 354 353 352 351 348 345 345 349 351 351 350 349 349 350 350 350 351 351 351 351 351 352 352 352 351 351 350 349 349 349 349 350 350 349 350 350 349 348 348 347 347 348 347 347 346 346 346 347 347 347 347 346 344 343 343 343 343 343 342 342 342 342 342 342 342 342 342
351 351 350 350 350 351 352 351 351 351 351 350 349 349 351 351 352 353 354 353 352 351 347 344 344 348 351 351 349 349 350 350 350 351 351 351 350 350 351 352 352 352 352 350 350 350 350 351 351 351 350 350 350 350 348 347 347 347 347 347 346 346 346 346 347 347 346 345 344 343 343 343 343 343 342 342 342 342 342 341 341 341 341 341 341
352 351 351 350 351 352 352 351 351 351 350 350 350 349 350 351 351 353 354 353 352 351 347 343 343 348 350 350 349 349 350 350 350 351 351 351 350 350 350 351 352 352 351 351 351 351 352 352 352 351 350 349 349 349 348 348 347 347 347 346 346 346 346 346 346 345 344 343 343 343 343 342 342 342 341 341 341 341 341 340 340 339 339 340 339
351 352 351 351 351 352 351 351 352 352 351 351 351 352 352 351 352 352 354 354 352 350 348 344 344 347 350 350 350 349 350 350 351 351 351 351 351 351 351 351 350 350 351 351 351 351 351 351 352 351 350 349 348 348 348 348 348 347 347 347 346 346 345 345 345 344 344 344 343 343 342 341 341 341 340 340 339 337 336 335 335 335 336 337 334
351 352 352 352 352 352 351 352 352 352 350 350 351 352 353 352 351 352 354 354 353 351 348 345 344 347 349 349 350 350 350 350 350 350 350 351 351 351 351 351 350 351 351 352 351 350 351 352 351 350 349 349 348 348 348 348 348 347 347 346 345 345 344 344 343 343 343 343 343 342 342 341 340 339 338 337 335 334 331 330 329 330 331 332 328
350 351 352 352 352 353 353 353 352 351 349 349 350 352 353 351 349 350 352 354 354 352 349 348 346 345 347 348 349 350 351 351 350 350 350 351 351 351 351 351 350 350 351 351 350 350 351 350 349 348 348 348 348 348 348 347 347 346 345 345 345 344 344 342 342 342 342 343 344 343 341 340 339 338 337 335 333 332 330 329 328 327 327 326 324
351 352 352 351 350 352 354 353 352 350 349 349 350 352 352 350 348 348 351 353 354 354 352 351 350 349 348 348 347 348 351 351 350 349 349 350 351 351 351 351 350 350 351 351 350 350 350 348 348 348 348 348 347 347 347 346 345 345 345 345 344 343 341 338 337 337 338 341 343 342 341 340 338 337 336 335 333 331 330 329 328 327 326 325 325
353 352 352 351 349 349 352 352 352 350 349 349 352 353 352 350 349 347 349 349 350 353 354 354 353 352 352 351 349 349 351 351 350 349 349 350 351 351 351 351 351 351 350 349 349 348 348 347 348 348 348 347 346 347 346 345 345 344 344 343 342 340 337 333 331 333 337 341 341 341 340 338 337 337 335 333 331 331 330 330 329 327 327 328 329
352 353 352 352 350 349 350 351 352 351 350 350 352 354 352 350 348 346 347 347 345 349 353 355 354 353 352 351 350 350 351 351 351 349 348 349 350 350 350 351 351 351 349 348 347 347 347 347 348 347 347 347 346 347 346 344 343 342 340 339 337 335 332 331 333 336 339 342 341 340 339 338 337 336 333 331 331 332 332 331 331 330 330 331 332
350 352 353 351 350 349 349 350 353 353 352 351 352 353 351 349 346 344 345 346 345 347 350 353 355 354 353 351 350 349 350 350 351 349 348 349 350 351 351 351 350 349 349 349 349 348 348 347 346 346 346 346 346 346 345 343 340 337 335 333 331 331 330 332 336 339 341 344 343 341 339 338 337 335 332 331 332 333 334 333 333 334 334 334 334
349 351 353 352 351 350 349 351 354 355 353 351 351 350 350 350 347 344 343 344 346 348 349 351 353 352 352 351 349 348 348 349 350 350 349 349 350 351 351 350 349 348 348 349 349 348 346 345 345 345 346 346 345 344 341 338 334 331 329 329 329 330 331 333 337 339 341 344 343 340 340 339 336 334 332 332 333 334 335 334 334 335 336 336 335
348 349 351 351 352 352 351 352 353 352 351 350 350 349 350 351 347 342 343 346 347 349 350 352 353 351 350 349 347 347 349 349 350 350 350 350 351 351 350 349 348 347 347 347 347 346 345 344 344 343 342 341 339 337 334 331 329 328 327 327 329 331 332 333 337 339 339 340 340 339 339 336 334 333 333 333 334 334 334 334 334 335 336 336 336
347 348 348 349 350 351 352 352 351 349 349 350 350 350 351 351 349 346 347 349 350 351 353 353 353 352 351 349 347 347 349 351 352 351 351 352 351 351 350 349 348 347 347 346 345 345 344 343 341 338 337 335 333 331 329 328 328 328 327 328 330 332 333 335 336 337 337 338 339 338 335 334 333 333 333 333 334 334 334 333 333 334 335 336 335
346 345 345 346 348 349 350 351 351 349 349 350 350 350 351 352 353 353 353 353 354 354 353 352 352 352 352 350 348 348 349 350 352 352 352 352 351 350 350 349 349 347 346 346 344 343 342 339 337 336 335 334 332 330 329 329 329 329 329 330 332 333 335 336 337 336 336 337 336 334 333 333 333 333 332 332 332 332 333 333 333 334 334 334 334
346 344 344 346 348 349 350 351 350 350 351 350 350 351 352 353 354 355 355 354 354 353 352 352 352 352 352 351 350 350 349 350 350 351 352 351 350 349 349 349 348 346 345 345 343 341 339 337 336 336 335 334 331 329 329 329 329 329 330 331 333 333 334 334 335 334 334 334 334 333 333 333 332 332 331 330 330 330 331 332 332 332 332 332 332
348 346 344 345 348 350 350 349 349 350 351 350 350 352 354 353 352 350 350 349 348 349 351 351 351 351 350 350 350 350 351 351 351 351 351 351 349 349 349 348 346 345 344 342 340 339 338 338 337 336 334 332 330 330 330 330 330 330 331 331 332 333 333 333 333 333 333 333 333 333 333 332 332 331 331 330 329 329 330 330 329 329 329 329 329
349 349 347 346 347 350 349 347 345 346 348 350 351 352 352 349 346 344 345 345 346 349 349 349 350 351 351 350 350 350 351 352 352 351 351 350 349 349 348 347 345 343 341 339 338 338 338 338 338 335 333 332 331 331 331 331 331 331 331 332 332 333 332 332 332 332 332 331 331 332 331 331 330 329 328 328 327 328 328 328 328 327 327 327 326
350 349 349 349 350 350 350 348 346 346 347 350 351 351 348 345 343 343 344 346 349 350 349 349 350 350 350 350 350 350 351 351 351 351 350 349 348 348 348 346 344 341 338 337 338 339 339 338 336 334 332 332 332 332 331 332 332 331 331 332 331 331 330 329 328 327 327 326 326 325 326 326 326 325 325 325 325 325 325 325 325 325 324 324 323
350 349 350 350 352 352 351 350 348 346 347 350 351 349 346 343 343 345 345 347 349 349 348 348 350 350 350 350 349 349 351 351 351 351 349 348 347 347 346 344 342 339 338 338 339 339 339 338 335 333 332 332 332 332 332 332 331 331 331 330 330 329 327 326 325 324 322 319 316 316 318 320 321 321 321 320 320 319 319 319 320 320 320 320 320
349 350 350 350 352 352 352 351 348 346 349 351 351 348 347 346 346 346 346 347 347 346 346 347 349 350 351 351 350 350 351 351 351 350 348 346 346 346 344 342 341 339 339 340 340 339 339 338 334 333 333 332 333 332 332 331 330 328 327 327 325 323 320 318 317 316 314 311 310 311 313 315 315 314 313 313 314 314 315 315 316 316 317 317 317
349 350 350 350 351 352 353 353 350 348 349 352 352 350 349 349 349 348 348 347 345 344 345 347 349 350 350 351 352 351 351 351 349 347 345 344 345 344 343 341 341 340 340 341 340 340 339 337 334 333 333 333 333 332 331 329 325 321 321 320 316 313 311 310 310 309 308 307 307 308 309 309 309 309 309 310 311 313 314 314 315 315 315 315 315
349 350 350 350 351 351 352 352 351 349 348 350 352 351 351 352 350 350 351 349 345 344 346 349 350 351 350 351 352 351 350 349 346 345 344 344 344 343 342 341 341 341 341 341 340 340 339 336 334 333 333 333 332 330 329 327 323 319 319 316 310 308 308 308 308 308 307 307 307 307 307 307 308 308 309 310 310 311 312 312 313 313 313 313 313
349 349 349 349 350 350 350 349 349 349 349 350 350 351 351 352 350 350 351 349 346 346 348 350 351 351 351 351 350 349 348 346 344 343 344 344 343 343 342 341 342 342 341 340 340 339 337 335 334 333 332 331 330 329 328 326 323 321 318 312 308 308 308 308 308 308 307 307 307 307 307 308 308 308 309 309 309 309 309 310 310 310 310 310 310
349 349 349 349 349 350 350 349 348 349 351 351 350 350 351 351 350 349 349 348 347 348 350 351 351 350 350 349 347 345 344 344 344 344 344 344 343 343 343 342 342 341 340 340 339 338 335 334 334 333 331 330 329 328 327 325 323 320 314 309 308 309 308 308 308 308 307 307 307 307 308 308 308 308 308 308 308 308 307 307 307 307 307 307 307
349 349 348 348 348 349 350 349 348 349 350 350 350 349 350 350 350 350 349 347 348 349 350 351 350 349 349 347 345 344 344 344 344 344 344 344 343 343 342 342 341 341 340 339 337 335 334 334 333 331 330 329 328 327 325 323 321 317 311 309 309 309 308 308 307 307 307 307 306 306 307 307 307 307 306 306 306 305 305 304 304 304 304 305 305
349 348 347 348 348 349 349 348 349 349 350 350 350 349 350 350 349 349 349 347 348 350 351 351 350 349 348 346 344 344 345 345 345 344 343 343 343 343 342 341 340 340 339 337 335 334 334 333 332 330 330 328 327 325 323 322 318 313 309 309 309 308 308 307 307 307 307 307 306 306 305 305 304 304 304 304 304 304 304 304 304 304 304 304 304
349 348 347 347 347 348 349 349 349 349 349 350 349 349 350 349 348 348 348 348 349 350 350 350 349 349 348 345 344 344 345 344 343 343 343 343 342 341 339 338 338 338 336 335 334 334 333 332 330 330 329 327 325 323 321 319 315 311 309 309 308 308 308 308 308 308 308 307 307 306 305 305 304 304 305 305 305 305 306 306 305 305 305 305 304
348 348 348 347 347 348 348 349 349 349 349 349 348 348 349 348 347 347 347 348 349 349 349 348 349 348 347 345 343 343 343 343 342 342 342 341 339 338 336 336 336 336 335 334 334 333 332 331 330 329 327 325 323 321 319 316 313 310 309 309 308 308 308 308 308 308 308 307 307 306 306 305 305 306 306 306 306 306 307 306 306 306 306 306 305
347 348 348 346 346 347 347 348 349 349 349 348 348 348 348 348 347 347 347 347 348 349 348 348 348 347 345 344 342 339 339 339 340 340 339 338 337 336 335 335 335 335 335 335 334 332 331 330 330 328 325 323 321 319 317 314 311 309 309 309 309 309 308 308 308 308 308 307 306 306 306 306 306 307 307 307 307 308 308 308 308 308 308 307 307
346 347 347 346 346 346 346 347 348 349 348 348 348 349 348 347 348 348 347 346 347 348 348 347 347 346 344 342 339 338 337 338 339 339 338 337 336 336 335 335 334 334 334 333 332 331 330 330 328 326 323 321 319 317 314 311 310 309 309 309 309 309 309 309 309 308 307 307 306 306 306 307 307 308 308 308 308 308 308 309 309 309 308 308 308
346 346 347 347 347 346 346 348 348 348 349 348 348 348 348 348 348 346 345 345 346 347 347 346 345 344 341 338 337 337 338 338 339 339 338 337 336 335 334 332 332 331 331 331 331 330 330 329 327 325 322 320 317 313 311 310 309 310 310 310 310 310 309 309 309 308 307 307 307 307 308 308 308 309 309 309 309 309 309 309 309 309 309 308 308
346 345 345 347 347 346 346 347 348 348 349 349 348 349 349 349 347 345 345 346 346 345 344 343 342 340 338 337 337 337 338 339 339 338 337 336 335 333 330 329 329 329 329 330 330 330 329 327 326 323 319 316 313 311 310 310 310 310 310 310 310 310 309 308 308 308 307 308 308 308 308 309 309 309 309 309 309 309 309 309 309 309 309 309 308
346 345 345 346 347 346 346 346 346 348 348 348 348 348 348 347 347 346 346 346 345 342 341 340 339 338 338 338 339 339 340 340 338 336 334 333 331 328 326 326 328 329 329 329 330 329 328 326 323 320 315 312 310 310 310 310 311 311 311 310 309 309 308 308 308 308 308 309 309 309 309 309 310 309 309 309 309 309 309 309 309 309 309 309 309
346 345 344 344 345 345 345 344 345 347 348 348 347 346 345 346 347 347 347 346 343 341 340 339 338 338 339 340 341 340 339 337 335 334 332 330 327 324 324 326 329 330 330 329 328 327 326 323 319 315 311 310 310 310 311 311 310 310 309 309 308 308 308 308 309 309 309 309 310 310 310 310 310 310 310 310 309 309 309 309 309 309 309 309 309
346 346 344 344 344 344 344 344 344 345 347 348 346 344 344 345 346 346 346 345 343 341 339 338 338 339 340 340 340 338 336 335 333 331 327 323 320 319 322 326 329 329 327 326 325 323 320 317 313 311 310 310 311 311 310 310 309 308 308 308 308 308 309 309 309 310 310 310 310 310 310 310 310 310 310 310 310 309 309 309 308 308 308 308 308
345 345 345 345 344 343 343 345 345 345 346 346 344 343 345 346 345 345 345 345 344 340 338 337 338 339 340 339 337 335 333 331 327 323 320 319 321 322 324 326 327 327 325 323 321 317 314 312 311 310 310 311 310 310 309 308 308 308 308 309 309 309 310 310 310 310 310 310 310 310 310 310 310 310 310 309 309 308 308 307 307 306 306 306 306
344 344 344 345 344 343 343 344 345 345 345 343 341 343 346 346 344 343 344 345 343 340 338 339 339 339 338 336 334 332 328 323 320 321 323 325 326 327 327 327 326 325 322 318 315 312 311 311 311 310 310 310 309 309 309 308 308 309 309 310 310 310 311 311 311 311 311 311 311 310 310 310 310 309 309 308 307 306 305 304 304 303 302 301 301
344 344 344 344 344 343 343 344 345 345 344 342 341 344 346 345 344 343 344 344 342 340 339 340 339 338 337 334 331 327 322 319 320 324 326 327 326 326 325 324 321 318 315 312 311 311 311 310 310 309 309 309 309 309 309 309 309 310 310 310 311 311 311 311 311 311 311 311 310 310 310 310 309 308 307 306 305 304 302 301 300 299 298 298 298
344 345 344 344 344 344 344 345 345 345 344 343 343 344 345 345 344 344 344 344 342 340 340 340 339 337 335 332 328 323 320 319 321 322 322 322 322 321 319 316 314 312 312 311 311 311 310 309 309 309 309 309 309 309 310 310 310 310 311 311 311 311 311 311 311 311 310 310 310 310 309 308 307 306 305 304 302 300 299 298 298 298 298 297 297
344 344 344 343 343 343 344 344 345 344 344 343 343 344 345 345 345 344 344 344 342 341 340 339 337 334 332 328 324 320 318 318 318 317 316 316 316 315 313 312 312 312 311 311 311 310 310 310 310 310 310 310 310 310 310 311 311 311 311 311 311 311 311 311 311 310 310 310 309 308 307 306 306 304 302 300 299 298 298 298 298 298 298 298 298
343 343 343 342 342 342 342 343 344 344 343 342 343 343 344 344 345 344 344 343 342 341 340 336 333 329 326 322 319 318 316 315 314 314 314 314 313 311 311 311 312 311 311 311 310 310 310 310 310 310 311 311 311 311 311 311 311 311 311 311 311 311 311 311 310 310 309 308 307 306 306 305 303 301 299 298 298 299 299 299 299 298 298 298 299
343 343 343 343 343 342 342 342 343 343 342 342 342 343 343 343 344 344 343 342 341 340 337 332 327 323 320 318 317 316 314 314 314 314 314 313 312 311 311 311 311 311 311 311 310 310 310 311 311 311 312 312 312 312 312 311 311 311 311 311 311 311 311 310 309 308 307 306 306 306 305 303 300 298 298 299 300 300 299 299 298 298 298 299 299
343 343 343 343 343 343 342 342 342 342 340 340 340 340 340 340 341 341 340 340 338 336 331 326 322 319 318 318 316 316 315 315 315 315 315 314 313 312 312 311 311 311 311 311 311 311 311 311 312 312 312 312 312 312 312 312 312 311 311 311 311 310 310 309 308 307 306 306 306 304 302 299 298 298 300 300 300 300 299 298 298 298 299 299 298
342 342 342 343 343 343 342 341 341 340 339 337 337 337 336 335 335 336 337 334 330 326 323 321 319 318 318 318 317 317 317 316 316 316 316 315 314 313 312 311 311 312 311 311 311 311 311 312 312 312 312 312 312 312 312 312 312 311 311 311 310 309 309 308 306 306 306 305 304 301 299 298 299 300 300 301 300 300 299 298 298 298 299 299 298
341 342 341 341 342 342 341 340 340 339 337 336 335 334 332 329 328 329 329 327 322 320 319 319 319 319 318 318 318 317 317 317 316 316 315 315 313 312 312 312 312 312 311 311 311 312 312 312 312 312 312 313 312 312 312 312 311 311 311 310 309 308 307 306 306 306 305 303 300 298 298 298 300 301 301 301 300 300 300 299 298 298 299 299 298
340 340 340 341 341 341 340 339 338 337 336 334 332 329 326 323 322 322 321 320 317 317 318 318 318 318 317 317 317 316 317 316 316 315 314 314 313 312 312 312 312 311 311 311 312 312 312 312 312 313 313 312 312 311 311 311 310 310 310 309 308 307 306 306 306 305 303 300 298 298 298 299 301 301 301 301 301 300 300 299 298 298 298 298 298
339 339 340 339 339 338 336 334 332 332 332 330 327 324 321 320 320 319 318 317 317 318 318 318 317 317 316 316 316 316 316 315 314 313 313 313 312 312 312 312 312 312 312 313 313 312 313 313 313 313 312 311 310 309 309 309 309 309 308 308 307 306 306 306 305 303 300 298 298 298 299 300 301 301 301 301 300 300 299 298 298 297 298 297 297
338 339 338 337 335 333 331 328 327 326 326 324 322 321 320 319 318 318 318 319 319 319 319 318 317 317 316 316 316 316 315 315 313 312 312 313 313 312 313 313 313 313 313 313 313 313 314 314 313 312 311 310 309 309 308 308 308 308 307 306 306 306 306 305 303 301 299 298 298 298 299 301 301 301 300 300 299 299 298 298 297 297 297 297 297
338 338 338 336 332 328 326 325 324 323 322 321 320 320 319 319 320 320 320 318 317 315 314 314 315 316 316 315 314 314 314 313 312 312 313 313 313 313 313 313 313 313 313 314 314 314 314 313 312 311 311 310 309 309 308 308 307 307 306 306 305 306 305 304 301 299 298 298 298 299 300 301 301 301 300 299 298 298 297 296 296 297 297 297 296
336 336 335 332 329 326 325 324 322 322 321 321 321 321 320 320 321 320 317 315 314 313 311 310 311 312 313 313 313 313 313 312 312 313 313 313 313 313 313 313 314 314 314 314 315 314 313 313 312 311 311 310 309 308 307 307 306 306 305 305 306 305 304 301 299 298 298 298 299 300 300 300 300 300 299 298 297 296 296 296 296 296 296 296 295
Wind_Speed
37 42 43 42 41 39 38 39 39 37 35 33 31 33 34 32 28 25 23 22 23 24 26 26 25 24 22 21 19 19 17 16 15 15 15 15 14 14 14 15 16 15 15 15 15 16 17 17 16 16 16 16 16 16 16 17 17 18 18 18 18 18 19 19 20 22 21 19 19 18 18 17 17 17 18 17 16 16 17 17 17 17 17 17 16
33 37 41 42 41 39 39 40 40 37 33 32 32 32 34 35 31 26 24 23 23 25 26 26 26 25 24 21 20 20 19 17 17 17 17 16 16 15 15 16 16 15 15 14 14 15 16 17 17 17 17 18 18 17 17 17 17 18 18 19 19 19 19 19 19 20 20 18 17 16 16 16 15 15 15 15 15 14 14 14 15 15 15 16 15
32 33 38 42 42 40 40 39 38 37 33 30 30 30 31 33 32 28 25 24 24 25 26 27 27 26 25 23 22 22 21 20 19 19 19 18 18 17 17 17 16 15 15 13 13 14 15 16 17 18 18 19 19 19 19 18 18 19 19 20 19 18 18 17 16 17 17 16 15 14 14 13 12 12 12 12 13 12 12 12 12 13 13 14 14
32 33 35 39 41 41 40 37 36 38 37 32 30 30 29 30 30 28 26 24 24 25 26 27 28 27 26 24 24 24 23 22 21 21 20 20 19 19 19 19 17 17 16 14 14 15 16 16 17 18 19 19 20 20 20 18 17 18 18 18 17 15 15 14 13 13 15 15 14 13 12 11 10 11 11 10 11 12 12 12 13 12 11 12 13
31 33 35 37 41 41 40 37 34 34 35 33 31 30 28 28 27 26 26 26 25 26 27 28 29 29 28 26 26 26 24 23 23 22 21 20 20 21 22 20 17 17 16 16 17 18 18 18 18 19 19 19 19 19 18 17 17 17 15 14 13 12 12 11 11 12 12 12 12 11 10 10 9 9 11 11 12 13 13 14 15 14 12 11 13
26 30 33 35 38 41 42 40 34 30 31 31 30 30 29 27 25 25 26 26 26 26 27 28 30 31 30 28 28 28 26 25 25 24 22 22 22 23 22 19 18 18 18 17 18 19 20 19 19 19 18 18 18 17 16 15 14 13 12 11 11 10 10 10 9 10 9 9 9 9 9 9 8 8 10 12 14 16 16 15 14 14 12 11 12
24 27 29 30 33 37 39 38 32 29 29 28 28 31 31 27 25 25 25 25 26 26 27 27 28 30 30 30 30 30 28 27 27 26 24 24 23 23 22 20 19 19 19 19 19 19 19 20 19 18 17 17 16 15 13 12 11 11 10 9 9 8 8 8 8 9 8 6 7 8 8 8 9 9 10 12 14 16 17 16 15 12 11 11 12
23 23 24 27 30 33 34 33 30 27 27 27 28 31 31 28 25 24 25 24 25 26 26 26 26 26 28 29 30 30 28 27 28 27 25 25 24 23 23 22 21 20 20 20 18 18 18 18 17 16 16 15 13 12 11 11 10 10 9 8 7 7 7 7 8 9 8 6 6 7 6 7 9 9 11 13 14 14 15 16 16 14 11 10 10
21 20 21 24 28 29 30 32 31 29 27 27 28 29 30 29 26 25 26 25 25 26 25 24 24 24 25 26 27 28 28 27 27 27 26 26 25 24 23 23 22 20 19 18 18 17 17 16 14 13 13 12 11 10 10 9 9 8 7 7 7 7 7 8 8 8 7 6 7 6 6 8 9 10 12 14 15 14 14 13 13 12 10 9 8
20 20 20 23 26 26 26 30 33 32 29 27 27 28 28 29 29 27 26 25 25 26 25 24 24 23 24 24 25 25 27 27 27 25 26 26 25 24 22 21 20 17 16 16 16 16 14 13 11 10 10 9 9 8 8 7 7 6 7 8 8 9 8 8 7 6 5 5 6 6 6 8 10 12 13 14 12 12 12 11 11 11 10 8 7
18 18 18 21 24 24 25 28 32 33 29 26 28 29 30 31 31 29 27 26 26 26 25 25 25 24 23 23 22 23 24 26 26 25 24 24 24 23 21 19 17 16 14 13 13 12 11 10 10 10 9 9 8 7 7 7 7 8 9 10 10 9 8 7 6 5 4 4 5 5 8 9 11 13 13 12 10 10 11 11 11 12 11 10 10
16 16 17 18 21 23 25 27 29 29 27 27 29 31 32 32 31 29 27 26 26 26 27 27 25 24 25 22 21 20 21 24 26 24 20 19 20 20 17 15 15 15 13 12 10 9 10 10 10 10 9 8 8 7 8 8 9 9 9 9 7 6 5 5 6 5 4 6 6 9 10 11 12 13 12 11 10 10 11 12 12 12 12 12 12
16 17 17 18 20 22 25 27 27 28 28 28 30 31 31 30 29 28 27 25 25 26 27 26 25 24 24 21 19 17 17 21 24 20 16 17 18 16 14 14 14 12 11 11 10 10 10 9 9 9 9 8 7 7 7 8 8 8 8 7 5 4 4 6 6 6 6 7 8 10 11 11 12 12 12 12 12 12 12 13 13 13 13 13 12
19 19 18 19 20 22 24 26 27 28 28 28 29 30 30 30 27 26 25 23 24 24 25 25 23 21 20 19 18 17 18 20 19 15 14 16 16 14 13 12 11 10 11 12 12 12 11 10 9 8 7 6 5 5 5 5 6 6 6 5 4 4 4 5 5 5 6 7 8 10 11 11 11 12 12 13 13 13 13 14 14 14 13 12 11
18 19 17 17 19 20 22 23 26 29 28 27 27 28 29 29 27 24 22 22 22 22 22 22 20 19 19 19 19 18 19 19 16 14 15 16 15 14 13 12 12 14 15 14 13 12 12 10 8 7 5 4 3 3 4 4 4 4 4 4 4 3 3 2 3 4 5 6 7 8 9 10 10 12 14 14 14 13 12 13 13 12 11 10 9
15 16 15 14 14 15 17 20 25 28 27 25 25 24 25 26 26 22 20 19 18 17 18 19 17 17 18 19 19 20 20 19 17 16 16 15 14 14 14 14 16 17 16 15 14 13 11 9 7 5 4 3 3 3 3 3 3 3 3 3 3 3 3 2 2 3 4 5 6 7 8 10 11 13 13 14 14 12 11 11 12 12 11 9 8
13 14 14 13 13 12 13 18 22 23 24 24 24 24 24 24 23 20 18 16 14 14 16 17 16 17 18 19 21 23 22 20 19 18 17 15 15 16 17 17 18 17 16 16 15 13 10 8 6 5 4 4 3 3 2 2 2 3 3 3 3 3 3 2 3 4 5 6 7 8 9 10 11 12 12 13 13 11 10 11 12 12 11 10 9
13 14 14 13 13 12 14 19 20 19 20 21 22 23 23 21 19 17 15 14 13 14 14 14 16 18 19 19 22 25 23 21 20 19 18 17 17 18 19 19 19 17 17 17 15 12 10 7 6 4 4 3 3 3 2 1 2 2 2 2 2 1 1 2 2 4 5 6 7 8 9 11 12 12 13 12 12 12 12 12 12 11 11 11 10
15 16 15 14 13 14 17 20 18 16 17 19 20 21 21 19 17 15 13 12 13 13 12 12 15 18 19 20 22 24 24 23 22 21 19 19 19 20 20 20 18 17 17 16 14 11 8 6 5 4 4 3 3 2 2 0 1 2 1 2 1 1 0 1 3 4 6 7 8 9 10 10 11 11 11 11 12 12 12 11 10 10 10 11 10
16 17 18 16 15 16 19 20 17 15 16 18 20 21 21 19 17 14 13 13 13 12 11 13 16 18 19 21 23 25 25 24 23 22 21 20 20 21 20 18 17 17 16 14 12 10 8 6 5 5 4 4 4 3 2 0 1 2 2 3 3 2 2 3 5 6 6 7 8 8 8 8 8 8 8 8 9 9 9 10 10 10 10 10 11
18 18 19 19 19 19 21 21 18 15 16 19 21 22 21 19 17 15 15 16 15 13 14 15 17 19 21 23 25 26 26 24 24 24 22 21 20 20 19 17 16 16 15 12 10 9 8 6 6 6 5 4 3 3 2 2 3 3 3 3 3 3 4 4 4 5 5 6 6 6 5 5 5 5 5 6 8 9 10 10 11 11 11 11 11
17 17 18 20 21 22 24 24 21 19 19 20 23 23 21 19 18 17 17 18 16 15 16 17 19 21 23 24 26 27 26 24 24 24 23 21 21 19 17 16 14 12 11 11 10 9 8 7 6 6 5 4 3 1 1 3 4 4 3 4 5 5 5 4 4 3 4 4 4 3 3 3 5 6 7 9 9 9 10 11 11 12 12 12 12
14 14 15 17 19 22 26 26 24 22 21 21 21 21 20 19 18 18 18 19 18 17 18 19 22 24 25 26 26 27 26 24 24 24 23 22 20 19 16 14 13 10 8 9 10 9 8 7 7 7 5 3 1 1 3 5 6 7 8 9 8 7 6 5 5 4 4 3 3 4 5 7 8 9 10 10 10 9 9 9 10 11 11 12 12
10 10 11 13 15 17 20 22 21 20 18 18 18 17 17 18 18 18 20 20 20 19 19 21 25 28 28 28 27 26 25 25 24 24 23 22 20 18 16 13 12 11 10 9 9 9 8 8 8 7 4 1 1 1 3 5 8 10 11 10 8 7 6 6 6 5 5 5 6 7 9 10 10 11 11 10 9 7 7 8 9 10 10 11 11
9 8 8 10 12 13 15 15 14 14 15 16 16 16 16 17 17 18 21 21 20 21 22 25 28 30 30 29 28 27 26 25 25 24 23 21 19 17 15 13 13 13 12 10 10 9 9 9 8 5 3 2 1 0 2 6 9 11 10 8 7 7 8 8 8 8 8 10 11 11 11 11 11 11 10 9 8 7 7 8 9 9 9 10 10
10 9 7 8 9 12 14 13 12 12 13 13 14 14 16 16 16 18 21 21 21 23 27 29 30 30 30 30 29 28 27 27 26 25 23 22 20 18 17 16 15 14 13 11 11 11 11 9 7 5 4 3 1 0 2 6 10 10 8 7 8 9 10 11 11 12 13 13 13 13 13 12 11 10 10 10 10 11 12 13 12 11 12 11 11
11 9 7 5 6 8 9 10 11 11 10 10 11 13 15 15 15 18 21 22 23 27 31 32 31 31 31 31 30 30 29 29 28 27 25 24 22 21 19 19 18 16 15 14 14 13 12 10 8 6 5 4 2 1 3 7 9 8 7 8 9 11 12 13 13 14 15 15 15 15 14 13 12 12 12 14 15 16 17 16 16 16 16 15 14
9 10 8 6 5 5 7 8 9 9 10 10 11 12 14 14 14 18 22 24 27 31 32 32 32 32 32 32 32 31 30 29 28 28 26 25 24 23 21 20 19 17 16 16 15 14 12 11 10 8 5 4 2 1 4 7 7 6 7 9 10 12 13 13 14 15 16 15 14 14 14 13 14 15 16 17 18 18 18 18 18 18 19 19 19
8 9 9 8 6 4 7 8 7 8 11 12 13 14 14 15 15 18 23 25 28 30 30 30 31 31 31 31 30 30 30 28 26 24 23 22 20 19 19 18 18 17 15 14 14 14 13 11 10 8 6 4 2 1 4 5 5 5 8 10 11 12 13 13 14 15 16 15 14 14 14 14 15 16 17 18 18 19 19 19 20 21 22 22 23
7 7 8 8 7 3 4 6 7 7 9 11 14 15 15 16 17 19 23 28 30 29 28 27 28 28 28 28 26 25 26 26 24 22 20 18 16 15 15 16 15 15 15 14 12 12 12 11 9 8 7 5 3 1 3 3 3 6 9 11 11 12 12 13 15 16 16 15 15 15 14 14 14 15 16 17 18 19 20 20 21 22 22 23 24
7 6 8 8 7 4 2 4 7 9 10 11 13 16 16 18 20 21 23 27 28 27 26 26 26 24 24 24 24 23 23 23 23 21 19 18 17 16 15 14 13 13 13 13 11 10 10 10 10 9 8 5 3 1 2 2 5 8 10 11 11 11 12 13 15 15 15 15 15 15 14 14 14 15 16 17 17 18 19 19 20 20 21 21 22
9 7 7 8 7 6 4 6 8 12 13 13 14 16 18 20 22 23 24 26 26 26 26 26 25 22 20 21 23 24 23 22 20 19 19 18 17 15 14 13 13 12 12 11 10 10 9 10 11 10 8 5 3 0 3 6 8 9 10 10 10 10 11 12 14 14 14 14 14 14 14 14 14 15 15 16 17 17 18 18 19 20 20 20 21
11 8 6 6 8 7 6 7 9 12 13 13 15 18 20 21 24 26 26 26 25 25 25 23 21 21 20 20 20 21 21 20 19 18 18 17 16 14 13 13 12 12 11 10 10 11 11 11 11 9 7 4 2 5 8 9 9 8 8 8 9 9 10 11 12 12 12 12 12 13 13 14 14 15 15 16 17 18 19 19 20 20 21 21 22
12 10 7 6 7 7 7 7 9 12 13 14 17 20 21 24 27 28 28 27 26 25 26 24 22 21 21 20 18 17 18 18 18 17 17 15 14 14 15 15 14 12 11 10 10 10 11 12 10 8 6 5 7 9 10 9 8 7 6 7 7 8 9 10 11 11 11 11 11 12 12 13 14 15 16 17 18 19 20 21 21 22 23 23 24
11 11 9 7 6 6 6 7 8 11 13 16 19 21 24 28 30 28 28 29 28 28 28 27 24 22 20 18 16 15 16 17 16 15 14 13 14 15 17 19 18 16 13 12 11 10 11 11 10 8 7 9 11 11 9 8 8 7 7 7 8 9 9 10 10 10 11 11 12 12 13 14 16 17 19 20 21 22 22 23 23 24 24 25 25
10 11 11 9 7 6 5 6 7 10 14 18 20 22 26 30 29 27 28 29 29 30 30 28 25 23 20 17 16 16 16 15 14 13 13 13 14 16 18 20 20 18 16 14 12 11 11 10 9 10 11 12 12 10 9 8 8 8 9 9 9 9 9 9 10 11 12 12 13 15 16 17 18 19 20 21 22 23 24 25 25 26 26 27 27
11 11 11 11 9 6 5 6 7 10 16 20 20 22 26 28 27 27 28 28 29 31 31 29 28 25 22 19 18 17 16 14 14 14 15 15 15 15 16 18 19 18 17 15 14 12 12 12 13 14 14 12 11 10 9 9 9 9 9 8 8 8 9 10 11 12 13 14 15 16 18 19 20 21 22 23 24 25 26 27 27 28 28 28 28
11 10 10 10 9 6 5 7 7 11 17 20 19 20 24 26 27 27 27 27 29 31 31 30 29 26 24 22 20 18 17 18 19 20 19 18 17 15 15 16 17 17 16 15 14 14 15 16 16 15 13 12 11 10 9 9 9 8 7 7 8 9 10 11 12 13 14 16 17 18 19 20 21 22 24 25 26 27 28 28 28 29 28 27 27
9 9 9 9 8 5 5 7 7 9 15 18 18 20 23 25 25 25 25 26 29 31 31 31 29 26 25 24 22 21 21 22 23 23 21 19 17 16 15 15 16 16 16 16 16 17 17 17 16 14 13 12 11 10 9 8 7 6 7 8 9 10 11 12 14 15 16 17 18 19 20 22 23 24 26 27 28 28 28 27 26 25 25 24 24
7 8 8 9 8 4 3 6 6 10 15 19 18 20 24 26 26 26 27 29 30 31 31 31 28 25 24 24 23 23 23 24 24 23 21 19 18 16 16 16 17 17 18 18 18 18 17 17 16 14 13 11 10 8 7 6 6 7 7 9 10 11 12 14 15 16 17 18 20 21 22 24 25 26 27 27 27 26 25 23 22 21 21 21 20
8 8 9 9 8 6 2 5 7 11 15 18 19 21 25 27 27 28 30 31 32 33 32 30 28 25 23 22 21 21 22 23 23 22 21 20 20 18 17 17 18 19 19 19 18 17 16 15 14 13 11 10 8 6 5 5 6 7 8 9 11 12 14 15 16 17 19 20 21 23 24 25 27 27 27 26 24 22 20 19 19 18 18 17 17
9 10 10 10 9 8 5 6 8 11 14 17 19 22 26 28 29 30 32 32 34 35 33 31 28 25 23 22 21 20 20 21 23 23 23 22 20 19 18 18 19 19 19 17 16 16 15 14 13 12 10 8 7 5 5 6 7 8 9 10 12 13 14 16 17 19 20 21 23 24 26 27 27 26 24 21 19 18 17 17 16 16 15 15 14
10 10 10 11 10 10 8 7 7 10 14 16 18 22 28 30 31 32 33 35 36 35 34 31 29 27 25 23 21 20 20 21 23 23 22 21 19 18 18 19 19 18 17 16 15 14 13 12 11 9 7 6 5 5 6 7 8 9 10 11 12 14 15 17 18 20 21 23 24 25 26 26 24 22 19 17 17 17 16 16 15 14 13 13 12
10 10 10 11 11 11 9 8 8 10 14 18 22 26 30 33 34 35 36 37 37 36 34 33 31 30 27 24 21 20 20 22 22 21 20 18 17 16 17 18 18 17 16 15 13 12 11 9 8 6 6 6 6 7 7 8 9 10 11 12 13 15 17 18 20 21 22 24 25 25 25 23 20 18 16 16 16 16 15 15 14 13 12 12 13
6 8 10 12 14 13 11 10 10 11 13 18 25 30 32 33 36 37 38 38 37 35 34 33 31 29 27 24 21 20 20 20 20 19 18 17 15 15 15 16 15 14 13 12 10 9 7 6 5 5 6 7 8 8 9 9 10 11 12 13 15 16 18 19 21 22 24 24 25 24 22 19 16 15 15 15 15 15 14 13 13 11 11 11 12
2 3 6 11 15 15 14 14 14 13 13 18 24 30 32 33 35 37 39 39 37 34 32 31 29 27 25 23 20 19 19 19 19 18 17 15 14 13 13 13 12 11 10 9 7 5 4 4 4 6 7 9 9 10 10 11 11 12 13 15 16 17 19 20 22 23 24 24 23 21 18 15 13 13 14 14 15 15 13 13 12 10 9 9 10
1 0 4 10 15 16 16 16 16 15 15 19 24 29 31 30 30 32 34 36 35 33 31 29 27 25 23 21 20 19 19 19 18 17 16 14 13 13 12 12 11 10 8 7 4 3 2 3 5 7 8 9 10 10 11 11 12 13 14 16 17 18 20 21 22 23 23 22 20 18 14 12 12 12 13 14 15 14 13 13 12 11 10 10 10
4 1 8 13 15 16 16 17 17 17 20 23 26 29 30 29 29 30 32 34 34 32 30 27 25 23 22 20 20 19 19 18 17 17 16 15 14 13 12 11 9 8 6 4 3 1 3 4 6 7 8 9 10 11 11 12 13 14 15 16 18 19 20 21 22 22 21 20 18 15 12 11 11 12 13 14 14 14 14 13 12 11 11 11 11
4 2 10 14 15 16 17 19 20 21 24 26 28 29 30 31 31 32 32 32 31 30 28 25 24 23 21 20 19 19 18 17 18 18 17 14 12 11 9 7 6 5 3 2 1 2 4 5 7 7 8 10 11 12 12 13 14 15 16 17 18 20 21 22 22 21 20 18 16 13 11 10 10 11 12 13 14 14 14 13 12 12 12 12 11
2 4 10 16 19 21 23 24 25 26 27 29 30 32 33 33 32 32 32 30 28 27 26 24 23 22 21 20 19 18 17 17 17 16 14 11 9 7 5 4 2 2 1 1 2 4 5 7 7 8 10 11 13 13 13 14 14 15 16 17 19 21 22 22 22 20 18 16 14 12 11 10 10 11 13 14 14 14 13 12 12 13 12 11 10
5 7 12 16 20 22 25 27 29 31 31 32 33 33 32 30 29 29 29 28 26 25 24 23 22 21 20 19 18 17 17 17 15 13 11 8 7 5 3 3 2 1 2 3 4 6 7 8 8 10 11 13 14 14 14 14 14 15 17 18 20 21 22 22 21 19 17 15 13 11 10 10 11 12 13 14 15 14 13 12 12 12 11 9 8
Wind_Direction
249 249 248 245 242 245 247 246 245 242 239 240 243 245 244 244 245 245 246 245 241 239 239 240 240 238 238 240 241 241 243 240 235 232 232 233 234 233 231 231 234 239 246 253 258 260 263 264 265 267 271 276 280 282 281 281 281 281 284 286 288 290 292 291 290 291 293 293 294 297 300 302 303 302 303 306 307 308 310 311 312 312 313 314 314
250 249 248 244 242 246 248 245 242 240 239 244 248 249 248 246 244 244 245 245 243 240 239 240 239 237 236 235 232 233 236 235 234 235 234 234 233 231 230 230 233 240 247 252 255 257 260 263 265 268 272 274 276 279 280 280 280 282 282 283 284 286 286 285 285 287 289 291 293 296 299 301 303 303 306 310 312 313 315 316 317 318 319 319 318
254 253 250 245 246 247 243 241 243 241 244 250 250 247 249 248 245 246 248 247 245 242 239 238 238 237 237 234 227 227 231 232 234 237 236 234 234 233 232 231 232 239 247 253 256 257 260 264 269 273 276 276 276 277 277 277 279 280 280 281 281 281 281 281 281 284 289 293 298 301 302 302 305 306 309 314 317 321 325 326 325 326 326 322 322
259 258 255 251 248 245 241 244 248 244 246 252 248 242 244 247 245 246 250 250 247 244 241 238 236 235 236 234 226 224 227 230 233 235 233 233 235 236 234 230 232 238 242 249 256 258 260 265 271 276 277 277 278 278 280 280 280 279 278 279 280 279 278 279 280 285 292 297 303 308 310 313 314 312 313 317 318 323 329 330 327 328 328 323 323
260 261 260 254 246 242 243 245 241 240 247 255 252 245 243 245 245 245 249 250 248 244 240 238 235 234 234 232 227 224 226 230 233 232 230 230 233 237 238 235 237 241 243 248 255 259 262 267 271 274 276 278 278 278 279 280 278 277 277 277 280 281 281 282 284 288 293 299 303 307 313 319 322 317 317 319 320 323 328 329 325 324 324 319 322
259 259 256 249 244 244 244 240 235 241 249 252 251 247 243 244 243 242 246 250 249 245 242 239 237 235 234 233 231 229 231 234 233 229 229 229 229 234 238 240 243 245 246 250 256 262 266 269 271 273 276 278 277 276 276 276 275 275 274 275 280 283 283 284 285 285 289 298 304 305 311 318 322 322 322 326 329 329 330 332 331 330 328 324 328
260 258 253 249 249 248 244 239 240 246 247 245 245 243 242 241 238 237 242 248 250 249 246 243 240 238 236 236 235 234 235 235 232 229 230 230 228 230 235 239 244 247 250 254 258 262 266 269 270 272 274 274 274 273 272 270 270 270 268 270 275 277 276 277 278 280 283 290 293 298 310 316 315 321 326 330 332 329 328 332 338 344 342 335 340
265 262 257 254 255 254 249 246 247 248 248 248 245 240 238 238 235 234 237 242 248 252 251 248 246 243 241 240 239 238 238 236 232 230 232 231 228 229 234 240 245 248 254 259 261 262 264 266 266 268 270 270 268 265 263 263 264 263 262 263 263 262 262 267 272 277 279 277 272 283 302 306 309 322 328 328 330 330 333 337 343 353 355 347 349
269 267 263 258 257 258 257 256 252 247 248 248 244 239 238 239 240 238 234 233 238 244 249 250 249 247 243 241 240 239 239 239 234 231 233 232 229 229 236 244 248 249 252 256 258 258 261 264 265 265 262 259 257 256 255 258 258 257 258 257 257 257 262 271 272 272 281 285 277 283 297 301 312 328 333 335 339 340 342 346 349 357 5 2 357
269 269 267 260 256 255 258 259 253 248 248 250 245 242 242 243 242 238 234 233 234 238 242 244 245 245 243 240 239 240 240 239 237 236 236 233 230 229 234 243 249 251 250 247 247 251 256 260 257 251 247 246 249 250 250 251 250 253 257 259 263 265 270 276 270 272 293 281 263 279 300 307 321 333 336 340 344 341 342 348 353 358 2 359 354
268 266 267 263 257 252 252 254 250 245 247 252 251 248 247 243 235 231 232 233 234 237 239 238 238 240 241 241 240 241 240 236 235 236 234 230 229 229 230 237 245 250 246 238 237 240 242 239 233 232 236 241 243 242 245 254 260 265 266 267 271 273 275 275 266 274 284 238 236 292 313 313 322 329 332 338 340 342 347 351 353 356 356 354 353
274 263 261 261 259 256 254 254 250 244 246 254 255 252 247 239 230 228 230 231 231 234 237 238 240 241 243 242 239 240 238 232 230 230 228 227 231 232 230 230 233 236 235 231 227 223 219 219 220 222 229 234 237 241 249 260 267 270 269 272 276 274 268 264 261 267 260 242 266 304 310 311 320 326 332 338 340 346 350 349 349 351 352 353 353
282 272 264 259 257 257 256 255 251 248 251 256 257 252 241 231 226 227 230 231 232 234 236 241 245 245 245 242 238 238 237 230 225 220 218 227 236 236 228 222 221 223 220 214 208 205 205 208 212 216 222 229 237 246 256 264 267 268 269 274 280 275 261 256 258 268 268 267 285 300 307 317 326 332 337 338 338 343 346 345 347 346 345 345 343
278 276 271 262 256 252 250 249 246 246 250 254 253 245 231 222 222 227 229 230 233 236 240 244 245 242 240 238 236 235 229 222 217 210 210 223 232 230 223 216 208 197 192 191 191 194 197 199 202 207 214 225 237 249 260 267 270 273 279 282 285 288 282 270 270 280 286 288 296 306 317 328 334 336 336 335 338 343 343 343 345 343 339 336 334
269 264 259 256 255 250 246 244 242 242 245 247 242 230 220 219 225 229 228 227 231 238 244 245 242 236 234 234 232 225 215 210 213 216 217 220 222 219 214 202 187 179 179 181 183 186 189 190 193 199 206 216 231 247 259 270 277 285 293 294 292 295 292 281 279 286 288 295 306 318 330 338 339 337 336 338 342 345 343 343 344 341 338 336 335
255 251 248 247 249 249 243 240 240 241 241 238 230 220 218 224 227 226 226 227 230 234 239 239 233 228 229 228 222 213 205 205 212 219 219 217 214 210 202 189 181 178 177 177 179 181 181 179 177 182 191 201 215 228 245 268 286 295 300 304 310 317 316 309 313 319 320 324 332 339 344 343 337 334 334 336 338 339 341 339 335 335 336 337 336
245 246 250 247 241 238 228 223 227 231 231 228 226 225 225 226 225 221 220 221 219 219 224 226 221 218 220 217 211 207 204 203 209 212 212 212 210 203 193 185 181 179 176 176 177 175 172 169 168 170 178 190 201 208 222 263 293 302 311 322 324 324 337 358 356 347 344 344 342 339 336 331 326 324 323 324 326 328 328 324 324 328 331 332 335
250 246 251 253 245 232 214 208 210 216 220 222 224 226 224 221 219 215 209 207 210 213 212 211 211 212 212 209 207 205 202 201 205 206 206 207 205 197 189 184 181 180 176 174 172 170 169 167 160 159 171 185 191 187 183 255 302 305 322 342 340 340 24 38 358 334 331 331 326 319 315 312 311 311 312 314 317 316 315 317 321 327 329 332 339
262 251 248 250 247 228 209 205 207 209 214 216 215 218 220 217 215 211 200 195 206 211 205 198 201 204 204 201 198 197 196 197 200 201 201 201 198 192 188 185 182 179 176 172 168 167 167 159 149 155 170 170 157 145 141 183 300 307 328 325 287 263 8 359 328 318 315 311 305 300 299 300 303 306 308 310 312 313 317 324 330 335 338 341 344
274 262 253 247 240 224 209 207 209 208 209 209 209 214 217 214 211 207 193 186 192 195 189 188 192 193 193 191 186 185 188 191 195 196 197 195 192 189 188 186 183 178 173 170 169 168 167 162 159 162 162 149 138 133 132 104 333 321 306 288 278 286 317 319 313 310 308 306 305 305 306 307 308 310 313 317 323 331 341 349 353 357 360 358 355
279 269 258 248 239 227 214 211 211 212 211 208 207 211 212 209 207 202 188 180 181 183 183 184 185 186 186 183 178 179 184 188 191 191 191 189 186 186 185 184 183 180 173 169 173 175 173 175 171 165 158 151 147 143 117 36 354 323 291 290 307 329 339 332 325 322 319 319 322 324 324 327 331 341 352 2 7 8 6 6 7 7 6 4 1
279 265 253 245 239 232 224 219 215 214 215 212 208 208 210 209 209 203 191 182 182 187 187 182 181 183 182 177 175 177 181 185 187 185 184 183 181 180 179 178 180 181 176 174 179 181 181 182 177 168 162 158 153 135 35 3 353 348 350 360 8 15 19 19 13 5 356 351 352 355 6 22 26 29 32 31 26 17 9 6 5 2 0 1 359
281 260 244 239 237 233 230 228 223 216 215 216 212 210 212 212 210 208 201 192 189 193 192 184 181 180 178 175 175 176 177 180 182 180 179 180 176 173 175 175 174 178 184 188 189 187 188 191 184 173 166 162 149 10 5 1 3 11 14 17 24 33 40 43 42 38 36 35 34 37 41 40 36 34 35 34 27 16 7 4 1 357 354 353 350
282 259 244 248 254 247 238 235 230 223 221 223 220 217 216 213 208 209 207 200 197 200 196 186 180 177 174 173 173 173 173 176 179 179 176 175 172 171 174 176 175 181 191 196 195 193 195 194 182 172 173 191 320 359 10 8 7 8 12 21 36 47 51 56 58 58 58 55 49 47 46 42 38 35 34 30 23 13 6 5 1 355 350 347 343
300 281 267 269 267 253 244 241 236 229 231 236 232 225 221 215 210 208 207 204 206 206 195 184 179 175 173 171 169 169 172 174 176 176 173 172 172 173 176 180 183 189 193 195 195 195 193 186 177 174 194 220 220 10 15 10 6 7 16 33 50 56 59 64 65 62 60 59 55 52 50 44 37 32 29 21 13 9 9 10 6 358 355 351 343
326 317 301 283 257 239 239 241 231 223 228 236 236 230 225 219 212 208 208 208 209 201 187 180 178 176 173 170 168 168 171 171 172 172 171 172 174 175 178 183 187 191 194 194 192 188 183 180 181 189 202 200 198 287 11 11 7 10 26 46 57 63 67 69 67 64 62 62 60 57 53 47 39 34 29 24 24 27 28 26 21 18 16 11 1
330 332 328 301 265 245 241 231 218 217 224 228 227 229 231 226 215 210 212 209 201 192 183 179 179 177 174 171 169 167 168 168 170 170 172 174 175 176 181 187 189 191 193 191 187 183 180 182 188 198 199 193 197 320 12 13 10 19 44 60 67 74 76 73 71 68 65 63 61 59 55 50 46 44 40 36 35 35 32 27 23 20 17 11 4
323 328 332 323 293 256 234 220 216 219 223 220 215 218 228 230 219 214 217 209 193 187 184 181 180 179 176 173 170 167 167 170 172 172 174 176 177 179 184 189 192 195 196 191 185 181 182 186 190 193 194 193 193 4 15 13 14 33 62 72 77 81 80 76 72 67 62 59 58 56 53 51 49 46 39 34 32 29 25 20 15 12 9 3 360
318 320 321 325 319 260 219 216 220 221 221 218 211 208 215 224 219 213 215 209 196 189 186 183 182 182 180 177 173 170 169 171 173 174 175 178 182 185 188 190 194 196 197 195 189 183 183 189 191 189 190 196 203 359 13 10 19 56 76 79 81 83 78 72 66 60 55 53 52 52 52 50 46 40 32 28 25 21 17 13 9 6 3 1 1
318 317 315 321 326 301 221 212 218 220 216 208 202 200 205 214 215 211 208 204 198 193 190 186 183 181 177 175 175 173 170 168 169 170 171 174 179 184 187 191 195 194 191 192 192 186 183 186 187 187 193 200 208 331 5 11 46 79 83 78 75 73 67 61 56 51 48 48 51 53 51 46 39 32 25 22 19 15 12 9 6 4 1 359 359
306 304 313 319 323 321 278 226 216 215 210 199 197 200 203 205 208 211 208 202 196 195 194 187 179 176 175 170 168 168 167 165 166 167 167 168 173 177 181 186 191 193 190 187 185 184 184 184 186 190 197 201 212 308 8 62 82 82 78 72 64 59 56 53 49 45 43 46 49 49 44 37 30 24 19 16 12 9 6 3 0 359 356 354 352
302 292 306 317 319 310 277 242 223 215 210 203 202 207 209 205 203 204 203 199 194 193 191 182 171 167 170 166 163 164 166 166 166 166 166 168 172 175 178 181 184 187 185 182 181 182 183 187 191 193 198 208 223 150 94 95 88 77 70 66 60 53 49 47 45 43 43 45 43 37 31 25 19 14 10 6 2 359 357 354 352 349 347 345 343
305 299 294 304 314 309 281 252 236 223 216 211 209 213 213 206 198 194 192 192 191 187 181 174 165 160 162 163 163 165 166 166 166 166 167 168 170 171 172 173 176 177 173 174 179 180 181 190 195 193 199 213 180 121 109 101 90 77 65 59 55 50 45 43 44 44 43 39 33 26 19 13 7 3 359 354 352 350 347 345 343 340 337 335 333
306 304 291 286 296 298 286 265 243 230 224 216 210 210 207 198 190 184 180 180 181 178 172 167 163 160 160 161 164 166 167 167 166 165 166 169 172 173 168 163 164 167 169 175 183 184 185 193 198 197 198 178 135 120 113 104 96 86 71 59 53 50 47 45 45 41 35 29 22 15 8 1 355 351 347 344 343 341 339 337 334 331 329 327 326
307 305 297 289 280 276 282 276 248 234 229 219 207 202 197 190 183 178 175 172 171 170 167 163 161 161 162 162 164 168 169 166 163 165 172 178 180 175 165 158 160 167 174 180 185 186 189 197 201 192 170 144 128 120 112 105 98 91 81 70 62 57 52 46 39 32 23 16 9 2 357 352 346 342 339 337 336 333 330 328 326 324 322 320 319
305 305 304 305 297 278 270 266 249 236 229 219 204 192 186 183 178 174 173 172 169 166 164 161 160 162 163 162 163 166 166 164 167 173 179 180 175 169 164 160 161 166 172 177 182 186 191 193 184 163 145 135 127 118 106 99 94 88 82 75 67 57 48 37 28 19 11 3 356 351 348 344 340 336 332 330 328 325 323 321 320 318 316 315 314
299 306 313 318 316 301 262 244 246 240 227 214 198 185 181 181 178 175 175 174 171 167 163 162 163 162 161 160 163 164 163 165 169 167 162 158 156 158 162 163 164 167 173 180 186 186 178 164 150 141 136 130 123 111 100 95 93 89 82 71 58 44 32 21 13 5 358 352 347 343 340 336 332 329 326 324 322 321 320 318 316 315 314 314 313
299 313 323 324 321 307 256 229 235 239 225 207 188 180 182 183 181 179 178 176 173 169 165 164 165 165 164 163 164 164 164 162 159 153 147 145 148 155 164 167 170 175 179 178 174 166 154 143 137 134 128 120 113 107 101 97 92 82 68 50 36 23 13 5 358 352 347 343 339 336 332 329 326 324 322 321 320 319 318 317 315 314 315 314 314
310 323 324 319 321 309 246 224 230 241 229 211 190 183 188 189 185 183 181 178 175 172 169 167 168 170 170 167 165 165 165 159 152 147 144 145 153 163 170 172 174 174 168 157 149 145 141 136 133 128 121 113 109 105 101 92 76 57 39 26 16 7 358 353 347 342 339 336 332 329 326 324 322 321 321 320 319 318 318 318 317 316 315 315 315
311 322 319 316 322 322 246 222 234 240 231 220 206 197 195 193 190 188 186 182 177 175 173 171 170 173 173 170 167 167 163 156 150 148 148 152 160 167 168 167 165 158 148 141 137 136 134 129 125 121 116 112 108 101 90 71 46 30 18 7 360 353 348 344 340 336 333 330 326 324 322 321 321 322 322 322 321 320 320 320 320 319 318 318 319
291 298 301 302 308 314 275 228 238 239 228 220 214 207 201 196 193 192 191 186 180 178 177 175 172 172 171 168 165 164 159 154 152 152 152 153 156 155 153 151 148 142 137 134 133 132 129 124 120 116 111 105 97 83 64 41 22 9 358 350 346 343 340 337 334 331 328 324 322 321 321 322 323 324 324 324 324 323 323 323 323 324 326 327 327
276 282 286 289 294 298 280 245 243 241 227 216 213 209 205 201 198 196 194 189 183 181 179 174 168 165 164 161 158 157 155 153 152 151 150 149 146 140 136 137 137 135 132 130 128 127 124 119 113 108 100 89 74 54 32 14 359 349 342 339 337 335 333 331 328 325 323 321 321 322 324 325 325 325 325 326 327 327 327 329 331 332 334 336 337
269 279 288 290 288 287 282 269 256 241 226 215 211 210 207 204 200 197 193 189 184 181 175 168 163 159 156 153 151 152 151 150 149 148 146 143 137 131 130 134 135 132 129 127 125 122 117 111 104 95 83 67 45 22 3 349 340 335 333 332 331 329 328 326 323 322 321 322 324 325 325 325 325 326 328 330 332 332 334 336 338 339 340 341 340
272 275 279 275 269 268 269 267 254 239 224 211 203 201 200 197 193 190 187 183 179 176 170 162 157 153 149 148 148 148 147 146 147 146 143 138 133 131 133 135 135 134 132 130 127 120 112 102 89 71 53 32 11 356 343 334 330 329 327 327 326 325 323 322 321 322 324 325 326 325 325 326 328 331 334 337 339 340 341 340 339 340 340 337 335
283 275 267 257 252 252 249 241 234 229 219 206 198 194 191 186 183 182 179 175 169 164 159 154 149 145 144 144 146 145 143 143 146 147 145 141 138 137 136 134 133 134 134 132 126 118 104 86 62 36 15 359 348 340 333 329 327 325 324 323 322 321 321 321 323 325 326 326 325 325 326 329 332 336 339 343 345 345 343 340 338 340 340 338 340
285 276 261 246 242 241 237 231 228 224 213 201 195 190 184 179 175 173 171 164 156 149 147 145 143 141 140 141 142 142 140 141 145 148 149 148 145 141 138 137 136 138 137 133 126 112 84 50 20 360 349 341 336 333 329 326 324 321 320 320 319 319 321 323 325 326 326 325 326 328 331 333 337 340 343 346 348 348 345 341 340 342 342 340 345
84 332 252 242 239 236 229 221 215 209 203 196 189 181 173 164 157 153 150 145 139 137 138 138 137 135 135 135 137 138 137 139 142 144 146 147 144 141 139 140 141 140 137 130 116 88 39 2 343 337 334 332 330 329 325 322 319 318 317 318 319 321 324 326 325 325 326 327 331 334 335 337 341 344 345 347 349 349 347 344 343 345 343 338 340
70 171 225 224 223 219 210 199 190 186 186 182 175 167 158 149 142 137 133 130 129 132 135 135 133 131 130 130 132 133 133 135 138 138 139 140 140 140 139 137 134 130 124 114 97 39 349 333 326 324 325 327 328 326 322 320 318 317 317 319 322 324 325 325 325 327 330 333 336 336 337 340 345 346 346 348 348 347 346 344 342 341 339 336 337
67 182 207 203 194 185 178 170 164 163 163 161 156 150 143 138 135 132 129 128 130 133 134 133 131 130 130 130 131 131 134 137 139 137 137 138 139 139 138 133 126 120 111 91 40 342 331 325 319 317 322 327 328 326 322 320 317 316 318 322 325 325 324 325 328 332 335 337 338 338 339 342 345 347 347 348 347 344 341 338 335 334 335 334 335
85 192 195 183 168 155 149 146 144 144 144 142 139 135 133 132 132 133 132 133 135 136 134 131 130 132 133 132 131 132 137 143 143 139 136 138 141 144 147 149 145 136 109 340 329 328 327 323 318 319 324 327 327 325 322 318 317 319 322 325 325 324 325 328 332 335 337 339 341 342 342 343 346 348 347 346 343 340 336 333 331 333 334 333 331
134 154 163 158 146 135 130 128 126 126 125 125 126 128 131 135 139 140 138 137 136 133 127 122 121 124 127 129 131 136 142 146 146 142 139 139 140 140 153 178 206 260 302 313 321 326 325 322 321 322 325 326 325 323 319 318 319 322 324 324 324 326 329 331 333 336 340 343 345 345 345 346 347 347 345 342 340 338 335 333 334 336 337 333 329